This is the latest recevied weather packets stored in our database for station/object K1RFS. If no packets are shown the sender has not sent any weather packets the latest 1 day(s).
| Time | Temp. | Humidity | Pressure | Rain* | Wind** | Luminosity | Snow |
|---|---|---|---|---|---|---|---|
| 1777996957 | 10° C | 66% | 996 hPa | 0 mm | 1.79 m/s, 257° | 64 W/m² | - |
| 1777996653 | 10° C | 65% | 995.8 hPa | 0 mm | 0.45 m/s, 189° | 68 W/m² | - |
| 1777996349 | 10° C | 65% | 995.9 hPa | 0 mm | 0.45 m/s, 221° | 60 W/m² | - |
| 1777996045 | 10° C | 64% | 995.8 hPa | 0 mm | 1.34 m/s, 165° | 44 W/m² | - |
| 1777995742 | 10° C | 63% | 995.7 hPa | 0 mm | 1.79 m/s, 173° | 52 W/m² | - |
| 1777995438 | 10° C | 63% | 995.7 hPa | 0 mm | 1.34 m/s, 179° | 75 W/m² | - |
| 1777995136 | 10° C | 62% | 995.3 hPa | 0 mm | 2.24 m/s, 162° | 75 W/m² | - |
| 1777994833 | 10° C | 62% | 995.6 hPa | 0 mm | 1.79 m/s, 176° | 57 W/m² | - |
| 1777994528 | 10° C | 62% | 995.6 hPa | 0 mm | 1.79 m/s, 148° | 60 W/m² | - |
| 1777994223 | 10.56° C | 61% | 995.4 hPa | 0 mm | 2.68 m/s, 282° | 69 W/m² | - |
| 1777993921 | 10.56° C | 61% | 995.4 hPa | 0 mm | 0.89 m/s, 199° | 62 W/m² | - |
| 1777993617 | 10.56° C | 61% | 995.3 hPa | 0 mm | 0.45 m/s, 193° | 56 W/m² | - |
| 1777993314 | 10.56° C | 60% | 995.3 hPa | 0 mm | 3.58 m/s, 189° | 58 W/m² | - |
| 1777993009 | 10.56° C | 60% | 995.2 hPa | 0 mm | 0.89 m/s, 224° | 58 W/m² | - |
| 1777992708 | 10.56° C | 59% | 995.2 hPa | 0 mm | 2.24 m/s, 205° | 51 W/m² | - |
| 1777992405 | 10.56° C | 59% | 995.1 hPa | 0 mm | 0.89 m/s, 214° | 42 W/m² | - |
| 1777992103 | 10.56° C | 60% | 995.2 hPa | 0 mm | 0.89 m/s, 178° | 41 W/m² | - |
| 1777991800 | 10.56° C | 60% | 995.1 hPa | 0 mm | 1.34 m/s, 199° | 36 W/m² | - |
| 1777991497 | 10.56° C | 61% | 995.2 hPa | 0 mm | 0.89 m/s, 205° | 28 W/m² | - |
| 1777991194 | 10.56° C | 61% | 995.2 hPa | 0 mm | 0.45 m/s, 179° | 26 W/m² | - |
| 1777990892 | 10.56° C | 61% | 995.2 hPa | 0 mm | 0 m/s | 34 W/m² | - |
| 1777990590 | 10.56° C | 58% | 995.1 hPa | 0 mm | 0.45 m/s, 182° | 39 W/m² | - |
| 1777990286 | 10.56° C | 59% | 994.9 hPa | 0 mm | 0.89 m/s, 177° | 43 W/m² | - |
| 1777989983 | 10.56° C | 58% | 995.1 hPa | 0 mm | 0.45 m/s, 177° | 35 W/m² | - |
| 1777989680 | 11.11° C | 58% | 995 hPa | 0 mm | 1.34 m/s, 186° | 22 W/m² | - |
* Rain latest hour (hover to see other rain measurements)
** Current wind speed in m/s (hover to see current wind gust speed)